RADUGA-1 5 [-]

Last updated on Tue Jun 27 2023 00:03:02 GMT+0000 (Coordinated Universal Time)

1 26477U 00049A 23177.05386729 -.00000302 00000+0 00000+0 0 9993 2 26477 13.3420 15.8540 0006231 76.9681 297.9455 1.00318051 83598
UTC large
Height (km)
Speed (km/s)
/
Latitude / Longitude
Inclination (degrees)
Orbital Period (minutes)
Azimuth
Elevation
Range (km)
Doppler Factor

Next 0 passes for location: London (51.5072 / 0.1276)

Sorry there are no passes over London.